datetime,flow
1947-10-01,0.0
1947-10-02,0.0
1947-10-03,0.0
1947-10-04,0.0
1947-10-05,0.0
1947-10-06,0.0
1947-10-07,0.0
1947-10-08,0.0
1947-10-09,0.0
1947-10-10,0.0
1947-10-11,0.0
1947-10-12,0.0
1947-10-13,0.0
1947-10-14,0.0
1947-10-15,0.0
1947-10-16,0.0
1947-10-17,0.0
1947-10-18,0.0
1947-10-19,0.0
1947-10-20,0.0
1947-10-21,0.0
1947-10-22,0.0
1947-10-23,0.0
1947-10-24,0.0
1947-10-25,0.0
1947-10-26,0.0
1947-10-27,0.0
1947-10-28,0.0
1947-10-29,0.0
1947-10-30,0.0
1947-10-31,0.0
1947-11-01,0.0
1947-11-02,0.0
1947-11-03,0.0
1947-11-04,0.0
1947-11-05,0.0
1947-11-06,0.0
1947-11-07,0.0
1947-11-08,0.0
1947-11-09,0.0
1947-11-10,0.0
1947-11-11,0.0
1947-11-12,0.0
1947-11-13,0.0
1947-11-14,0.0
1947-11-15,0.0
1947-11-16,0.0
1947-11-17,0.0
1947-11-18,0.0
1947-11-19,0.0
1947-11-20,0.0
1947-11-21,0.0
1947-11-22,0.0
1947-11-23,0.0
1947-11-24,0.0
1947-11-25,0.0
1947-11-26,0.0
1947-11-27,0.0
1947-11-28,0.0
1947-11-29,0.0
1947-11-30,0.0
1947-12-01,0.0
1947-12-02,0.0
1947-12-03,0.0
1947-12-04,0.0
1947-12-05,0.0
1947-12-06,0.0
1947-12-07,0.0
1947-12-08,0.0
1947-12-09,0.0
1947-12-10,0.0
1947-12-11,0.0
1947-12-12,0.0
1947-12-13,0.0
1947-12-14,0.0
1947-12-15,0.0
1947-12-16,0.0
1947-12-17,0.0
1947-12-18,0.0
1947-12-19,0.0
1947-12-20,0.0
1947-12-21,0.0
1947-12-22,0.0
1947-12-23,0.0
1947-12-24,0.0
1947-12-25,0.0
1947-12-26,0.0
1947-12-27,0.0
1947-12-28,0.0
1947-12-29,0.0
1947-12-30,0.0
1947-12-31,0.0
1948-01-01,0.0
1948-01-02,0.0
1948-01-03,0.0
1948-01-04,0.0
1948-01-05,0.0
1948-01-06,0.0
1948-01-07,0.0
1948-01-08,0.0
1948-01-09,0.0
1948-01-10,0.0
1948-01-11,0.0
1948-01-12,0.0
1948-01-13,0.0
1948-01-14,0.0
1948-01-15,0.0
1948-01-16,0.0
1948-01-17,0.0
1948-01-18,0.0
1948-01-19,0.0
1948-01-20,0.0
1948-01-21,0.0
1948-01-22,0.0
1948-01-23,0.0
1948-01-24,0.0
1948-01-25,0.0
1948-01-26,0.0
1948-01-27,0.0
1948-01-28,0.0
1948-01-29,0.0
1948-01-30,0.0
1948-01-31,0.0
1948-02-01,0.0
1948-02-02,0.0
1948-02-03,0.0
1948-02-04,0.0
1948-02-05,0.0
1948-02-06,0.0
1948-02-07,0.0
1948-02-08,0.0
1948-02-09,0.0
1948-02-10,0.0
1948-02-11,0.0
1948-02-12,0.0
1948-02-13,0.0
1948-02-14,0.0
1948-02-15,0.0
1948-02-16,0.0
1948-02-17,0.0
1948-02-18,0.0
1948-02-19,0.0
1948-02-20,0.0
1948-02-21,0.0
1948-02-22,0.0
1948-02-23,0.0
1948-02-24,0.0
1948-02-25,0.0
1948-02-26,0.0
1948-02-27,0.0
1948-02-28,0.0
1948-02-29,0.0
1948-03-01,0.0
1948-03-02,0.0
1948-03-03,0.0
1948-03-04,0.0
1948-03-05,0.0
1948-03-06,0.0
1948-03-07,0.0
1948-03-08,0.0
1948-03-09,0.0
1948-03-10,0.0
1948-03-11,0.0
1948-03-12,0.0
1948-03-13,0.0
1948-03-14,0.0
1948-03-15,0.0
1948-03-16,0.0
1948-03-17,0.0
1948-03-18,0.0
1948-03-19,0.0
1948-03-20,0.0
1948-03-21,0.0
1948-03-22,0.0
1948-03-23,0.0
1948-03-24,0.0
1948-03-25,0.0
1948-03-26,0.0
1948-03-27,0.0
1948-03-28,0.0
1948-03-29,0.0
1948-03-30,0.0
1948-03-31,0.0
1948-04-01,0.0
1948-04-02,0.0
1948-04-03,0.0
1948-04-04,0.0
1948-04-05,0.0
1948-04-06,0.0
1948-04-07,0.0
1948-04-08,0.0
1948-04-09,0.0
1948-04-10,0.0
1948-04-11,0.0
1948-04-12,0.0
1948-04-13,0.0
1948-04-14,0.0
1948-04-15,0.0
1948-04-16,0.0
1948-04-17,0.0
1948-04-18,0.0
1948-04-19,0.0
1948-04-20,0.0
1948-04-21,0.0
1948-04-22,0.0
1948-04-23,0.0
1948-04-24,0.0
1948-04-25,0.0
1948-04-26,0.0
1948-04-27,0.0
1948-04-28,0.0
1948-04-29,0.0
1948-04-30,0.0
1948-05-01,0.0
1948-05-02,0.0
1948-05-03,0.0
1948-05-04,0.0
1948-05-05,0.0
1948-05-06,0.0
1948-05-07,0.0
1948-05-08,0.0
1948-05-09,0.0
1948-05-10,0.0
1948-05-11,0.0
1948-05-12,0.0
1948-05-13,0.0
1948-05-14,0.0
1948-05-15,0.0
1948-05-16,0.0
1948-05-17,0.0
1948-05-18,15.0
1948-05-19,32.0
1948-05-20,44.0
1948-05-21,48.0
1948-05-22,52.0
1948-05-23,46.0
1948-05-24,40.0
1948-05-25,32.0
1948-05-26,26.0
1948-05-27,26.0
1948-05-28,30.0
1948-05-29,34.0
1948-05-30,34.0
1948-05-31,38.0
1948-06-01,39.0
1948-06-02,42.0
1948-06-03,42.0
1948-06-04,36.0
1948-06-05,33.0
1948-06-06,31.0
1948-06-07,29.0
1948-06-08,27.0
1948-06-09,26.0
1948-06-10,25.0
1948-06-11,27.0
1948-06-12,24.0
1948-06-13,21.0
1948-06-14,17.0
1948-06-15,15.0
1948-06-16,14.0
1948-06-17,12.0
1948-06-18,11.0
1948-06-19,12.0
1948-06-20,11.0
1948-06-21,9.0
1948-06-22,8.5
1948-06-23,8.2
1948-06-24,6.0
1948-06-25,4.9
1948-06-26,6.7
1948-06-27,8.2
1948-06-28,6.0
1948-06-29,5.1
1948-06-30,5.6
1948-07-01,5.6
1948-07-02,5.4
1948-07-03,5.6
1948-07-04,5.1
1948-07-05,5.4
1948-07-06,5.4
1948-07-07,5.4
1948-07-08,4.1
1948-07-09,3.2
1948-07-10,3.3
1948-07-11,3.3
1948-07-12,3.0
1948-07-13,2.6
1948-07-14,2.6
1948-07-15,2.3
1948-07-16,2.0
1948-07-17,2.4
1948-07-18,2.4
1948-07-19,3.9
1948-07-20,3.2
1948-07-21,3.2
1948-07-22,2.6
1948-07-23,1.6
1948-07-24,1.7000000000000002
1948-07-25,2.8
1948-07-26,2.0
1948-07-27,1.6
1948-07-28,1.6
1948-07-29,3.0
1948-07-30,1.6
1948-07-31,1.4
1948-08-01,1.1
1948-08-02,1.0
1948-08-03,0.9
1948-08-04,1.1
1948-08-05,1.0
1948-08-06,0.9
1948-08-07,0.9
1948-08-08,0.9
1948-08-09,0.9
1948-08-10,0.7000000000000001
1948-08-11,0.6000000000000001
1948-08-12,0.5
1948-08-13,0.5
1948-08-14,0.6000000000000001
1948-08-15,0.0
1948-08-16,0.0
1948-08-17,0.0
1948-08-18,0.0
1948-08-19,0.0
1948-08-20,0.0
1948-08-21,0.0
1948-08-22,0.0
1948-08-23,0.0
1948-08-24,0.0
1948-08-25,0.0
1948-08-26,0.0
1948-08-27,0.0
1948-08-28,0.0
1948-08-29,0.0
1948-08-30,0.0
1948-08-31,0.0
1948-09-01,0.0
1948-09-02,0.0
1948-09-03,0.0
1948-09-04,0.0
1948-09-05,0.0
1948-09-06,0.0
1948-09-07,0.0
1948-09-08,0.0
1948-09-09,0.0
1948-09-10,0.0
1948-09-11,0.0
1948-09-12,0.0
1948-09-13,0.0
1948-09-14,0.0
1948-09-15,0.0
1948-09-16,0.0
1948-09-17,0.0
1948-09-18,0.0
1948-09-19,0.0
1948-09-20,0.0
1948-09-21,0.0
1948-09-22,0.0
1948-09-23,0.0
1948-09-24,0.0
1948-09-25,0.0
1948-09-26,0.0
1948-09-27,0.0
1948-09-28,0.0
1948-09-29,0.0
1948-09-30,0.0
1948-10-01,0.0
1948-10-02,0.0
1948-10-03,0.0
1948-10-04,0.0
1948-10-05,0.0
1948-10-06,0.0
1948-10-07,0.0
1948-10-08,0.0
1948-10-09,0.0
1948-10-10,0.0
1948-10-11,0.0
1948-10-12,0.0
1948-10-13,0.0
1948-10-14,0.0
1948-10-15,0.0
1948-10-16,0.0
1948-10-17,0.0
1948-10-18,0.0
1948-10-19,0.0
1948-10-20,0.0
1948-10-21,0.0
1948-10-22,0.0
1948-10-23,0.0
1948-10-24,0.0
1948-10-25,0.0
1948-10-26,0.0
1948-10-27,0.0
1948-10-28,0.0
1948-10-29,0.0
1948-10-30,0.0
1948-10-31,0.0
1948-11-01,0.0
1948-11-02,0.0
1948-11-03,0.0
1948-11-04,0.0
1948-11-05,0.0
1948-11-06,0.0
1948-11-07,0.0
1948-11-08,0.0
1948-11-09,0.0
1948-11-10,0.0
1948-11-11,0.0
1948-11-12,0.0
1948-11-13,0.0
1948-11-14,0.0
1948-11-15,0.0
1948-11-16,0.0
1948-11-17,0.0
1948-11-18,0.0
1948-11-19,0.0
1948-11-20,0.0
1948-11-21,0.0
1948-11-22,0.0
1948-11-23,0.0
1948-11-24,0.0
1948-11-25,0.0
1948-11-26,0.0
1948-11-27,0.0
1948-11-28,0.0
1948-11-29,0.0
1948-11-30,0.0
1948-12-01,0.0
1948-12-02,0.0
1948-12-03,0.0
1948-12-04,0.0
1948-12-05,0.0
1948-12-06,0.0
1948-12-07,0.0
1948-12-08,0.0
1948-12-09,0.0
1948-12-10,0.0
1948-12-11,0.0
1948-12-12,0.0
1948-12-13,0.0
1948-12-14,0.0
1948-12-15,0.0
1948-12-16,0.0
1948-12-17,0.0
1948-12-18,0.0
1948-12-19,0.0
1948-12-20,0.0
1948-12-21,0.0
1948-12-22,0.0
1948-12-23,0.0
1948-12-24,0.0
1948-12-25,0.0
1948-12-26,0.0
1948-12-27,0.0
1948-12-28,0.0
1948-12-29,0.0
1948-12-30,0.0
1948-12-31,0.0
1949-01-01,0.0
1949-01-02,0.0
1949-01-03,0.0
1949-01-04,0.0
1949-01-05,0.0
1949-01-06,0.0
1949-01-07,0.0
1949-01-08,0.0
1949-01-09,0.0
1949-01-10,0.0
1949-01-11,0.0
1949-01-12,0.0
1949-01-13,0.0
1949-01-14,0.0
1949-01-15,0.0
1949-01-16,0.0
1949-01-17,0.0
1949-01-18,0.0
1949-01-19,0.0
1949-01-20,0.0
1949-01-21,0.0
1949-01-22,0.0
1949-01-23,0.0
1949-01-24,0.0
1949-01-25,0.0
1949-01-26,0.0
1949-01-27,0.0
1949-01-28,0.0
1949-01-29,0.0
1949-01-30,0.0
1949-01-31,0.0
1949-02-01,0.0
1949-02-02,0.0
1949-02-03,0.0
1949-02-04,0.0
1949-02-05,0.0
1949-02-06,0.0
1949-02-07,0.0
1949-02-08,0.0
1949-02-09,0.0
1949-02-10,0.0
1949-02-11,0.0
1949-02-12,0.0
1949-02-13,0.0
1949-02-14,0.0
1949-02-15,0.0
1949-02-16,0.0
1949-02-17,0.0
1949-02-18,0.0
1949-02-19,0.0
1949-02-20,0.0
1949-02-21,0.0
1949-02-22,0.0
1949-02-23,0.0
1949-02-24,0.0
1949-02-25,0.0
1949-02-26,0.0
1949-02-27,0.0
1949-02-28,0.0
1949-03-01,0.0
1949-03-02,0.0
1949-03-03,0.0
1949-03-04,0.0
1949-03-05,0.0
1949-03-06,0.0
1949-03-07,0.0
1949-03-08,0.0
1949-03-09,0.0
1949-03-10,0.0
1949-03-11,0.0
1949-03-12,0.0
1949-03-13,0.0
1949-03-14,0.0
1949-03-15,0.0
1949-03-16,0.0
1949-03-17,0.0
1949-03-18,0.0
1949-03-19,0.0
1949-03-20,0.0
1949-03-21,0.0
1949-03-22,0.0
1949-03-23,0.0
1949-03-24,0.0
1949-03-25,0.0
1949-03-26,0.0
1949-03-27,0.0
1949-03-28,0.0
1949-03-29,0.0
1949-03-30,0.0
1949-03-31,0.0
1949-04-01,0.0
1949-04-02,0.0
1949-04-03,0.0
1949-04-04,0.0
1949-04-05,0.0
1949-04-06,0.0
1949-04-07,0.0
1949-04-08,0.0
1949-04-09,0.0
1949-04-10,0.0
1949-04-11,0.0
1949-04-12,0.0
1949-04-13,0.0
1949-04-14,0.0
1949-04-15,0.0
1949-04-16,0.0
1949-04-17,0.0
1949-04-18,0.0
1949-04-19,0.0
1949-04-20,0.0
1949-04-21,0.0
1949-04-22,0.0
1949-04-23,0.0
1949-04-24,0.0
1949-04-25,0.0
1949-04-26,0.0
1949-04-27,0.0
1949-04-28,0.0
1949-04-29,0.0
1949-04-30,0.0
1949-05-01,0.0
1949-05-02,0.0
1949-05-03,0.0
1949-05-04,3.0
1949-05-05,6.0
1949-05-06,2.0
1949-05-07,3.2
1949-05-08,2.2
1949-05-09,1.8
1949-05-10,3.5
1949-05-11,4.9
1949-05-12,5.6
1949-05-13,5.4
1949-05-14,7.9
1949-05-15,13.0
1949-05-16,13.0
1949-05-17,11.0
1949-05-18,12.0
1949-05-19,15.0
1949-05-20,14.0
1949-05-21,9.8
1949-05-22,7.9
1949-05-23,8.2
1949-05-24,12.0
1949-05-25,17.0
1949-05-26,23.0
1949-05-27,23.0
1949-05-28,21.0
1949-05-29,37.0
1949-05-30,28.0
1949-05-31,24.0
1949-06-01,19.0
1949-06-02,15.0
1949-06-03,14.0
1949-06-04,14.0
1949-06-05,19.0
1949-06-06,20.0
1949-06-07,19.0
1949-06-08,21.0
1949-06-09,25.0
1949-06-10,26.0
1949-06-11,28.0
1949-06-12,38.0
1949-06-13,21.0
1949-06-14,25.0
1949-06-15,28.0
1949-06-16,36.0
1949-06-17,36.0
1949-06-18,36.0
1949-06-19,33.0
1949-06-20,30.0
1949-06-21,28.0
1949-06-22,25.0
1949-06-23,22.0
1949-06-24,21.0
1949-06-25,19.0
1949-06-26,19.0
1949-06-27,20.0
1949-06-28,16.0
1949-06-29,15.0
1949-06-30,14.0
1949-07-01,14.0
1949-07-02,16.0
1949-07-03,20.0
1949-07-04,15.0
1949-07-05,17.0
1949-07-06,17.0
1949-07-07,15.0
1949-07-08,14.0
1949-07-09,14.0
1949-07-10,13.0
1949-07-11,9.8
1949-07-12,8.5
1949-07-13,7.4
1949-07-14,7.2
1949-07-15,6.0
1949-07-16,5.6
1949-07-17,5.4
1949-07-18,5.1
1949-07-19,6.5
1949-07-20,6.7
1949-07-21,5.1
1949-07-22,3.9
1949-07-23,4.1
1949-07-24,11.0
1949-07-25,12.0
1949-07-26,9.0
1949-07-27,6.0
1949-07-28,4.1
1949-07-29,3.3
1949-07-30,3.3
1949-07-31,3.0
1949-08-01,2.6
1949-08-02,3.0
1949-08-03,3.9
1949-08-04,2.8
1949-08-05,1.8
1949-08-06,2.2
1949-08-07,2.0
1949-08-08,2.0
1949-08-09,3.2
1949-08-10,3.5
1949-08-11,1.9
1949-08-12,1.6
1949-08-13,1.2
1949-08-14,0.0
1949-08-15,0.0
1949-08-16,0.0
1949-08-17,0.0
1949-08-18,0.0
1949-08-19,0.0
1949-08-20,0.0
1949-08-21,0.0
1949-08-22,0.0
1949-08-23,0.0
1949-08-24,0.0
1949-08-25,0.0
1949-08-26,0.0
1949-08-27,0.0
1949-08-28,0.0
1949-08-29,0.0
1949-08-30,0.0
1949-08-31,0.0
1949-09-01,0.0
1949-09-02,0.0
1949-09-03,0.0
1949-09-04,0.0
1949-09-05,0.0
1949-09-06,0.0
1949-09-07,0.0
1949-09-08,0.0
1949-09-09,0.0
1949-09-10,0.0
1949-09-11,0.0
1949-09-12,0.0
1949-09-13,0.0
1949-09-14,0.0
1949-09-15,0.0
1949-09-16,0.0
1949-09-17,0.0
1949-09-18,0.0
1949-09-19,0.0
1949-09-20,0.0
1949-09-21,0.0
1949-09-22,0.0
1949-09-23,0.0
1949-09-24,0.0
1949-09-25,0.0
1949-09-26,0.0
1949-09-27,0.0
1949-09-28,0.0
1949-09-29,0.0
1949-09-30,0.0
1949-10-01,0.0
1949-10-02,0.0
1949-10-03,0.0
1949-10-04,0.0
1949-10-05,0.0
1949-10-06,0.0
1949-10-07,0.0
1949-10-08,0.0
1949-10-09,0.0
1949-10-10,0.0
1949-10-11,0.0
1949-10-12,0.0
1949-10-13,0.0
1949-10-14,0.0
1949-10-15,0.0
1949-10-16,0.0
1949-10-17,0.0
1949-10-18,0.0
1949-10-19,0.0
1949-10-20,0.0
1949-10-21,0.0
1949-10-22,0.0
1949-10-23,0.0
1949-10-24,0.0
1949-10-25,0.0
1949-10-26,0.0
1949-10-27,0.0
1949-10-28,0.0
1949-10-29,0.0
1949-10-30,0.0
1949-10-31,0.0
1949-11-01,0.0
1949-11-02,0.0
1949-11-03,0.0
1949-11-04,0.0
1949-11-05,0.0
1949-11-06,0.0
1949-11-07,0.0
1949-11-08,0.0
1949-11-09,0.0
1949-11-10,0.0
1949-11-11,0.0
1949-11-12,0.0
1949-11-13,0.0
1949-11-14,0.0
1949-11-15,0.0
1949-11-16,0.0
1949-11-17,0.0
1949-11-18,0.0
1949-11-19,0.0
1949-11-20,0.0
1949-11-21,0.0
1949-11-22,0.0
1949-11-23,0.0
1949-11-24,0.0
1949-11-25,0.0
1949-11-26,0.0
1949-11-27,0.0
1949-11-28,0.0
1949-11-29,0.0
1949-11-30,0.0
1949-12-01,0.0
1949-12-02,0.0
1949-12-03,0.0
1949-12-04,0.0
1949-12-05,0.0
1949-12-06,0.0
1949-12-07,0.0
1949-12-08,0.0
1949-12-09,0.0
1949-12-10,0.0
1949-12-11,0.0
1949-12-12,0.0
1949-12-13,0.0
1949-12-14,0.0
1949-12-15,0.0
1949-12-16,0.0
1949-12-17,0.0
1949-12-18,0.0
1949-12-19,0.0
1949-12-20,0.0
1949-12-21,0.0
1949-12-22,0.0
1949-12-23,0.0
1949-12-24,0.0
1949-12-25,0.0
1949-12-26,0.0
1949-12-27,0.0
1949-12-28,0.0
1949-12-29,0.0
1949-12-30,0.0
1949-12-31,0.0
1950-01-01,0.0
1950-01-02,0.0
1950-01-03,0.0
1950-01-04,0.0
1950-01-05,0.0
1950-01-06,0.0
1950-01-07,0.0
1950-01-08,0.0
1950-01-09,0.0
1950-01-10,0.0
1950-01-11,0.0
1950-01-12,0.0
1950-01-13,0.0
1950-01-14,0.0
1950-01-15,0.0
1950-01-16,0.0
1950-01-17,0.0
1950-01-18,0.0
1950-01-19,0.0
1950-01-20,0.0
1950-01-21,0.0
1950-01-22,0.0
1950-01-23,0.0
1950-01-24,0.0
1950-01-25,0.0
1950-01-26,0.0
1950-01-27,0.0
1950-01-28,0.0
1950-01-29,0.0
1950-01-30,0.0
1950-01-31,0.0
1950-02-01,0.0
1950-02-02,0.0
1950-02-03,0.0
1950-02-04,0.0
1950-02-05,0.0
1950-02-06,0.0
1950-02-07,0.0
1950-02-08,0.0
1950-02-09,0.0
1950-02-10,0.0
1950-02-11,0.0
1950-02-12,0.0
1950-02-13,0.0
1950-02-14,0.0
1950-02-15,0.0
1950-02-16,0.0
1950-02-17,0.0
1950-02-18,0.0
1950-02-19,0.0
1950-02-20,0.0
1950-02-21,0.0
1950-02-22,0.0
1950-02-23,0.0
1950-02-24,0.0
1950-02-25,0.0
1950-02-26,0.0
1950-02-27,0.0
1950-02-28,0.0
1950-03-01,0.0
1950-03-02,0.0
1950-03-03,0.0
1950-03-04,0.0
1950-03-05,0.0
1950-03-06,0.0
1950-03-07,0.0
1950-03-08,0.0
1950-03-09,0.0
1950-03-10,0.0
1950-03-11,0.0
1950-03-12,0.0
1950-03-13,0.0
1950-03-14,0.0
1950-03-15,0.0
1950-03-16,0.0
1950-03-17,0.0
1950-03-18,0.0
1950-03-19,0.0
1950-03-20,0.0
1950-03-21,0.0
1950-03-22,0.0
1950-03-23,0.0
1950-03-24,0.0
1950-03-25,0.0
1950-03-26,0.0
1950-03-27,0.0
1950-03-28,0.0
1950-03-29,0.0
1950-03-30,0.0
1950-03-31,0.0
1950-04-01,0.0
1950-04-02,0.0
1950-04-03,0.0
1950-04-04,0.0
1950-04-05,0.0
1950-04-06,0.0
1950-04-07,0.0
1950-04-08,0.0
1950-04-09,0.0
1950-04-10,0.0
1950-04-11,0.0
1950-04-12,0.0
1950-04-13,0.0
1950-04-14,0.0
1950-04-15,0.0
1950-04-16,0.0
1950-04-17,0.0
1950-04-18,0.0
1950-04-19,0.0
1950-04-20,0.0
1950-04-21,0.0
1950-04-22,0.0
1950-04-23,0.0
1950-04-24,0.0
1950-04-25,0.0
1950-04-26,0.0
1950-04-27,0.0
1950-04-28,0.0
1950-04-29,0.0
1950-04-30,0.0
1950-05-01,0.0
1950-05-02,0.0
1950-05-03,0.0
1950-05-04,0.0
1950-05-05,0.0
1950-05-06,0.0
1950-05-07,0.0
1950-05-08,0.0
1950-05-09,0.2
1950-05-10,0.8
1950-05-11,1.8
1950-05-12,3.2
1950-05-13,3.9
1950-05-14,4.3
1950-05-15,7.2
1950-05-16,9.5
1950-05-17,15.0
1950-05-18,15.0
1950-05-19,12.0
1950-05-20,15.0
1950-05-21,22.0
1950-05-22,29.0
1950-05-23,34.0
1950-05-24,31.0
1950-05-25,19.0
1950-05-26,11.0
1950-05-27,8.7
1950-05-28,7.2
1950-05-29,6.7
1950-05-30,11.0
1950-05-31,24.0
1950-06-01,31.0
1950-06-02,35.0
1950-06-03,30.0
1950-06-04,20.0
1950-06-05,26.0
1950-06-06,36.0
1950-06-07,34.0
1950-06-08,25.0
1950-06-09,22.0
1950-06-10,26.0
1950-06-11,30.0
1950-06-12,30.0
1950-06-13,28.0
1950-06-14,26.0
1950-06-15,25.0
1950-06-16,26.0
1950-06-17,26.0
1950-06-18,21.0
1950-06-19,18.0
1950-06-20,16.0
1950-06-21,15.0
1950-06-22,13.0
1950-06-23,11.0
1950-06-24,11.0
1950-06-25,10.0
1950-06-26,9.0
1950-06-27,8.5
1950-06-28,8.2
1950-06-29,7.4
1950-06-30,6.7
1950-07-01,6.2
1950-07-02,5.8
1950-07-03,5.6
1950-07-04,5.1
1950-07-05,4.7
1950-07-06,3.7
1950-07-07,3.3
1950-07-08,3.9
1950-07-09,3.7
1950-07-10,3.5
1950-07-11,3.7
1950-07-12,3.2
1950-07-13,2.0
1950-07-14,1.8
1950-07-15,1.8
1950-07-16,1.5
1950-07-17,1.4
1950-07-18,3.2
1950-07-19,2.0
1950-07-20,1.0
1950-07-21,1.0
1950-07-22,2.8
1950-07-23,1.8
1950-07-24,0.9
1950-07-25,1.0
1950-07-26,1.0
1950-07-27,0.5
1950-07-28,0.5
1950-07-29,0.7000000000000001
1950-07-30,0.7000000000000001
1950-07-31,0.4
1950-08-01,0.4
1950-08-02,0.4
1950-08-03,0.2
1950-08-04,0.4
1950-08-05,0.30000000000000004
1950-08-06,0.0
1950-08-07,0.0
1950-08-08,0.0
1950-08-09,0.0
1950-08-10,0.0
1950-08-11,0.0
1950-08-12,0.0
1950-08-13,0.0
1950-08-14,0.0
1950-08-15,0.0
1950-08-16,0.0
1950-08-17,0.0
1950-08-18,0.0
1950-08-19,0.0
1950-08-20,0.0
1950-08-21,0.0
1950-08-22,0.0
1950-08-23,0.0
1950-08-24,0.0
1950-08-25,0.0
1950-08-26,0.0
1950-08-27,0.0
1950-08-28,0.0
1950-08-29,0.0
1950-08-30,0.0
1950-08-31,0.0
1950-09-01,0.0
1950-09-02,0.0
1950-09-03,0.0
1950-09-04,0.0
1950-09-05,0.0
1950-09-06,0.0
1950-09-07,0.0
1950-09-08,0.0
1950-09-09,0.0
1950-09-10,0.0
1950-09-11,0.0
1950-09-12,0.0
1950-09-13,0.0
1950-09-14,0.0
1950-09-15,0.0
1950-09-16,0.0
1950-09-17,0.0
1950-09-18,0.0
1950-09-19,0.0
1950-09-20,0.0
1950-09-21,0.0
1950-09-22,0.0
1950-09-23,0.0
1950-09-24,0.0
1950-09-25,0.0
1950-09-26,0.0
1950-09-27,0.0
1950-09-28,0.0
1950-09-29,0.0
1950-09-30,0.0
1950-10-01,0.0
1950-10-02,0.0
1950-10-03,0.0
1950-10-04,0.0
1950-10-05,0.0
1950-10-06,0.0
1950-10-07,0.0
1950-10-08,0.0
1950-10-09,0.0
1950-10-10,0.0
1950-10-11,0.0
1950-10-12,0.0
1950-10-13,0.0
1950-10-14,0.0
1950-10-15,0.0
1950-10-16,0.0
1950-10-17,0.0
1950-10-18,0.0
1950-10-19,0.0
1950-10-20,0.0
1950-10-21,0.0
1950-10-22,0.0
1950-10-23,0.0
1950-10-24,0.0
1950-10-25,0.0
1950-10-26,0.0
1950-10-27,0.0
1950-10-28,0.0
1950-10-29,0.0
1950-10-30,0.0
1950-10-31,0.0
1950-11-01,0.0
1950-11-02,0.0
1950-11-03,0.0
1950-11-04,0.0
1950-11-05,0.0
1950-11-06,0.0
1950-11-07,0.0
1950-11-08,0.0
1950-11-09,0.0
1950-11-10,0.0
1950-11-11,0.0
1950-11-12,0.0
1950-11-13,0.0
1950-11-14,0.0
1950-11-15,0.0
1950-11-16,0.0
1950-11-17,0.0
1950-11-18,0.0
1950-11-19,0.0
1950-11-20,0.0
1950-11-21,0.0
1950-11-22,0.0
1950-11-23,0.0
1950-11-24,0.0
1950-11-25,0.0
1950-11-26,0.0
1950-11-27,0.0
1950-11-28,0.0
1950-11-29,0.0
1950-11-30,0.0
1950-12-01,0.0
1950-12-02,0.0
1950-12-03,0.0
1950-12-04,0.0
1950-12-05,0.0
1950-12-06,0.0
1950-12-07,0.0
1950-12-08,0.0
1950-12-09,0.0
1950-12-10,0.0
1950-12-11,0.0
1950-12-12,0.0
1950-12-13,0.0
1950-12-14,0.0
1950-12-15,0.0
1950-12-16,0.0
1950-12-17,0.0
1950-12-18,0.0
1950-12-19,0.0
1950-12-20,0.0
1950-12-21,0.0
1950-12-22,0.0
1950-12-23,0.0
1950-12-24,0.0
1950-12-25,0.0
1950-12-26,0.0
1950-12-27,0.0
1950-12-28,0.0
1950-12-29,0.0
1950-12-30,0.0
1950-12-31,0.0
1951-01-01,0.0
1951-01-02,0.0
1951-01-03,0.0
1951-01-04,0.0
1951-01-05,0.0
1951-01-06,0.0
1951-01-07,0.0
1951-01-08,0.0
1951-01-09,0.0
1951-01-10,0.0
1951-01-11,0.0
1951-01-12,0.0
1951-01-13,0.0
1951-01-14,0.0
1951-01-15,0.0
1951-01-16,0.0
1951-01-17,0.0
1951-01-18,0.0
1951-01-19,0.0
1951-01-20,0.0
1951-01-21,0.0
1951-01-22,0.0
1951-01-23,0.0
1951-01-24,0.0
1951-01-25,0.0
1951-01-26,0.0
1951-01-27,0.0
1951-01-28,0.0
1951-01-29,0.0
1951-01-30,0.0
1951-01-31,0.0
1951-02-01,0.0
1951-02-02,0.0
1951-02-03,0.0
1951-02-04,0.0
1951-02-05,0.0
1951-02-06,0.0
1951-02-07,0.0
1951-02-08,0.0
1951-02-09,0.0
1951-02-10,0.0
1951-02-11,0.0
1951-02-12,0.0
1951-02-13,0.0
1951-02-14,0.0
1951-02-15,0.0
1951-02-16,0.0
1951-02-17,0.0
1951-02-18,0.0
1951-02-19,0.0
1951-02-20,0.0
1951-02-21,0.0
1951-02-22,0.0
1951-02-23,0.0
1951-02-24,0.0
1951-02-25,0.0
1951-02-26,0.0
1951-02-27,0.0
1951-02-28,0.0
1951-03-01,0.0
1951-03-02,0.0
1951-03-03,0.0
1951-03-04,0.0
1951-03-05,0.0
1951-03-06,0.0
1951-03-07,0.0
1951-03-08,0.0
1951-03-09,0.0
1951-03-10,0.0
1951-03-11,0.0
1951-03-12,0.0
1951-03-13,0.0
1951-03-14,0.0
1951-03-15,0.0
1951-03-16,0.0
1951-03-17,0.0
1951-03-18,0.0
1951-03-19,0.0
1951-03-20,0.0
1951-03-21,0.0
1951-03-22,0.0
1951-03-23,0.0
1951-03-24,0.0
1951-03-25,0.0
1951-03-26,0.0
1951-03-27,0.0
1951-03-28,0.0
1951-03-29,0.0
1951-03-30,0.0
1951-03-31,0.0
1951-04-01,0.0
1951-04-02,0.0
1951-04-03,0.0
1951-04-04,0.0
1951-04-05,0.0
1951-04-06,0.0
1951-04-07,0.0
1951-04-08,0.0
1951-04-09,0.0
1951-04-10,0.0
1951-04-11,0.0
1951-04-12,0.0
1951-04-13,0.0
1951-04-14,0.0
1951-04-15,0.0
1951-04-16,0.0
1951-04-17,0.0
1951-04-18,0.0
1951-04-19,0.0
1951-04-20,0.0
1951-04-21,0.0
1951-04-22,0.0
1951-04-23,0.0
1951-04-24,0.0
1951-04-25,0.0
1951-04-26,0.0
1951-04-27,0.0
1951-04-28,0.0
1951-04-29,0.0
1951-04-30,0.0
1951-05-01,0.0
1951-05-02,0.0
1951-05-03,0.0
1951-05-04,0.0
1951-05-05,0.0
1951-05-06,0.0
1951-05-07,0.0
1951-05-08,0.0
1951-05-09,0.0
1951-05-10,0.0
1951-05-11,0.0
1951-05-12,0.0
1951-05-13,0.0
1951-05-14,0.8
1951-05-15,1.0
1951-05-16,1.6
1951-05-17,4.1
1951-05-18,7.4
1951-05-19,14.0
1951-05-20,19.0
1951-05-21,20.0
1951-05-22,20.0
1951-05-23,23.0
1951-05-24,22.0
1951-05-25,19.0
1951-05-26,30.0
1951-05-27,42.0
1951-05-28,49.0
1951-05-29,44.0
1951-05-30,45.0
1951-05-31,44.0
1951-06-01,33.0
1951-06-02,25.0
1951-06-03,22.0
1951-06-04,16.0
1951-06-05,18.0
1951-06-06,22.0
1951-06-07,24.0
1951-06-08,25.0
1951-06-09,26.0
1951-06-10,23.0
1951-06-11,19.0
1951-06-12,18.0
1951-06-13,21.0
1951-06-14,23.0
1951-06-15,24.0
1951-06-16,31.0
1951-06-17,38.0
1951-06-18,40.0
1951-06-19,36.0
1951-06-20,37.0
1951-06-21,41.0
1951-06-22,30.0
1951-06-23,27.0
1951-06-24,24.0
1951-06-25,24.0
1951-06-26,24.0
1951-06-27,21.0
1951-06-28,20.0
1951-06-29,20.0
1951-06-30,19.0
1951-07-01,17.0
1951-07-02,16.0
1951-07-03,15.0
1951-07-04,15.0
1951-07-05,13.0
1951-07-06,11.0
1951-07-07,12.0
1951-07-08,11.0
1951-07-09,9.5
1951-07-10,8.7
1951-07-11,7.9
1951-07-12,7.4
1951-07-13,6.0
1951-07-14,6.2
1951-07-15,6.0
1951-07-16,5.8
1951-07-17,7.0
1951-07-18,7.7
1951-07-19,5.8
1951-07-20,5.6
1951-07-21,7.0
1951-07-22,5.4
1951-07-23,4.1
1951-07-24,4.1
1951-07-25,3.5
1951-07-26,2.6
1951-07-27,3.0
1951-07-28,5.1
1951-07-29,3.9
1951-07-30,3.5
1951-07-31,4.1
1951-08-01,3.5
1951-08-02,4.9
1951-08-03,11.0
1951-08-04,7.0
1951-08-05,5.6
1951-08-06,3.7
1951-08-07,3.2
1951-08-08,2.6
1951-08-09,1.9
1951-08-10,1.8
1951-08-11,1.8
1951-08-12,1.5
1951-08-13,1.2
1951-08-14,1.0
1951-08-15,1.0
1951-08-16,0.8
1951-08-17,0.6000000000000001
1951-08-18,0.8
1951-08-19,0.8
1951-08-20,0.9
1951-08-21,1.6
1951-08-22,1.5
1951-08-23,0.8
1951-08-24,0.9
1951-08-25,1.5
1951-08-26,0.8
1951-08-27,0.6000000000000001
1951-08-28,0.6000000000000001
1951-08-29,0.6000000000000001
1951-08-30,0.8
1951-08-31,0.4
1951-09-01,0.4
1951-09-02,0.0
1951-09-03,0.0
1951-09-04,0.0
1951-09-05,0.0
1951-09-06,0.0
1951-09-07,0.0
1951-09-08,0.0
1951-09-09,0.0
1951-09-10,0.0
1951-09-11,0.0
1951-09-12,0.0
1951-09-13,0.0
1951-09-14,0.0
1951-09-15,0.0
1951-09-16,0.0
1951-09-17,0.0
1951-09-18,0.0
1951-09-19,0.0
1951-09-20,0.0
1951-09-21,0.0
1951-09-22,0.0
1951-09-23,0.0
1951-09-24,0.0
1951-09-25,0.0
1951-09-26,0.0
1951-09-27,0.0
1951-09-28,0.0
1951-09-29,0.0
1951-09-30,0.0
1951-10-01,0.0
1951-10-02,0.0
1951-10-03,0.0
1951-10-04,0.0
1951-10-05,0.0
1951-10-06,0.0
1951-10-07,0.0
1951-10-08,0.0
1951-10-09,0.0
1951-10-10,0.0
1951-10-11,0.0
1951-10-12,0.0
1951-10-13,0.0
1951-10-14,0.0
1951-10-15,0.0
1951-10-16,0.0
1951-10-17,0.0
1951-10-18,0.0
1951-10-19,0.0
1951-10-20,0.0
1951-10-21,0.0
1951-10-22,0.0
1951-10-23,0.0
1951-10-24,0.0
1951-10-25,0.0
1951-10-26,0.0
1951-10-27,0.0
1951-10-28,0.0
1951-10-29,0.0
1951-10-30,0.0
1951-10-31,0.0
1951-11-01,0.0
1951-11-02,0.0
1951-11-03,0.0
1951-11-04,0.0
1951-11-05,0.0
1951-11-06,0.0
1951-11-07,0.0
1951-11-08,0.0
1951-11-09,0.0
1951-11-10,0.0
1951-11-11,0.0
1951-11-12,0.0
1951-11-13,0.0
1951-11-14,0.0
1951-11-15,0.0
1951-11-16,0.0
1951-11-17,0.0
1951-11-18,0.0
1951-11-19,0.0
1951-11-20,0.0
1951-11-21,0.0
1951-11-22,0.0
1951-11-23,0.0
1951-11-24,0.0
1951-11-25,0.0
1951-11-26,0.0
1951-11-27,0.0
1951-11-28,0.0
1951-11-29,0.0
1951-11-30,0.0
1951-12-01,0.0
1951-12-02,0.0
1951-12-03,0.0
1951-12-04,0.0
1951-12-05,0.0
1951-12-06,0.0
1951-12-07,0.0
1951-12-08,0.0
1951-12-09,0.0
1951-12-10,0.0
1951-12-11,0.0
1951-12-12,0.0
1951-12-13,0.0
1951-12-14,0.0
1951-12-15,0.0
1951-12-16,0.0
1951-12-17,0.0
1951-12-18,0.0
1951-12-19,0.0
1951-12-20,0.0
1951-12-21,0.0
1951-12-22,0.0
1951-12-23,0.0
1951-12-24,0.0
1951-12-25,0.0
1951-12-26,0.0
1951-12-27,0.0
1951-12-28,0.0
1951-12-29,0.0
1951-12-30,0.0
1951-12-31,0.0
1952-01-01,0.0
1952-01-02,0.0
1952-01-03,0.0
1952-01-04,0.0
1952-01-05,0.0
1952-01-06,0.0
1952-01-07,0.0
1952-01-08,0.0
1952-01-09,0.0
1952-01-10,0.0
1952-01-11,0.0
1952-01-12,0.0
1952-01-13,0.0
1952-01-14,0.0
1952-01-15,0.0
1952-01-16,0.0
1952-01-17,0.0
1952-01-18,0.0
1952-01-19,0.0
1952-01-20,0.0
1952-01-21,0.0
1952-01-22,0.0
1952-01-23,0.0